EN

Hourly Weather Dzierzkowice

Today, 22 October, Thursday

Time Temperature Precipitation Wind Pressure Humidity
00:00 +10°C° 0 mm 5 mps 739 mmHg 77%
01:00 +10°C° 0 mm 5 mps 739 mmHg 79%
02:00 +10°C° 0 mm 5 mps 739 mmHg 79%
03:00 +10°C° 0 mm 5 mps 739 mmHg 78%
04:00 +10°C° 0 mm 5 mps 739 mmHg 78%
05:00 +10°C° 0 mm 5 mps 739 mmHg 78%
06:00 +10°C° 0 mm 5 mps 739 mmHg 77%
07:00 +10°C° 0 mm 6 mps 739 mmHg 77%
08:00 +12°C° 0 mm 5 mps 740 mmHg 73%
09:00 +13°C° 0 mm 5 mps 740 mmHg 70%
10:00 +14°C° 0 mm 5 mps 740 mmHg 67%
11:00 +15°C° 0 mm 5 mps 740 mmHg 66%
12:00 +16°C° 0 mm 5 mps 740 mmHg 65%
13:00 +16°C° 0 mm 5 mps 740 mmHg 65%
14:00 +15°C° 0 mm 5 mps 739 mmHg 68%
15:00 +14°C° 0 mm 5 mps 739 mmHg 72%
16:00 +13°C° 0 mm 5 mps 739 mmHg 76%
17:00 +13°C° 0 mm 5 mps 739 mmHg 77%
18:00 +12°C° 0 mm 5 mps 739 mmHg 79%
19:00 +10°C° 0 mm 5 mps 740 mmHg 80%
20:00 +10°C° 0 mm 5 mps 739 mmHg 80%
21:00 +11°C° 0 mm 4 mps 739 mmHg 80%
22:00 +11°C° 0 mm 4 mps 739 mmHg 80%
23:00 +11°C° 0 mm 4 mps 739 mmHg 80%

Tomorrow, 23 October, Friday

Time Temperature Precipitation Wind Pressure Humidity
00:00 +11°C° 0 mm 4 mps 739 mmHg 80%
01:00 +10°C° 0 mm 4 mps 739 mmHg 81%
02:00 +10°C° 0 mm 3 mps 739 mmHg 82%
03:00 +10°C° 0 mm 3 mps 738 mmHg 83%
04:00 +10°C° 0 mm 3 mps 738 mmHg 84%
05:00 +10°C° 0 mm 3 mps 738 mmHg 84%
06:00 +10°C° 0 mm 3 mps 738 mmHg 85%
07:00 +10°C° 0 mm 3 mps 738 mmHg 85%
08:00 +11°C° 0 mm 3 mps 738 mmHg 82%
09:00 +12°C° 0 mm 4 mps 738 mmHg 78%
10:00 +13°C° 0 mm 4 mps 737 mmHg 75%
11:00 +14°C° 0 mm 4 mps 737 mmHg 73%
12:00 +15°C° 0 mm 4 mps 737 mmHg 71%
13:00 +17°C° 0 mm 4 mps 737 mmHg 70%
14:00 +15°C° 0 mm 4 mps 736 mmHg 73%
15:00 +14°C° 0 mm 3 mps 736 mmHg 76%
16:00 +14°C° 0 mm 3 mps 736 mmHg 80%
17:00 +13°C° 0 mm 3 mps 736 mmHg 82%
18:00 +12°C° 0 mm 3 mps 736 mmHg 84%
19:00 +12°C° 0 mm 3 mps 736 mmHg 86%
20:00 +12°C° 0 mm 3 mps 736 mmHg 86%
21:00 +11°C° 0 mm 3 mps 736 mmHg 87%
22:00 +11°C° 0 mm 3 mps 736 mmHg 87%
23:00 +11°C° 0 mm 3 mps 735 mmHg 87%

Day after tomorrow, 24 October, Saturday

Time Temperature Precipitation Wind Pressure Humidity
00:00 +11°C° 0 mm 4 mps 735 mmHg 87%
01:00 +11°C° 0 mm 4 mps 735 mmHg 87%
02:00 +11°C° 0.2 mm 4 mps 735 mmHg 88%
03:00 +11°C° 0.2 mm 3 mps 735 mmHg 89%
04:00 +11°C° 0.2 mm 3 mps 735 mmHg 89%
05:00 +11°C° 1 mm 3 mps 735 mmHg 91%
06:00 +11°C° 1 mm 3 mps 736 mmHg 93%
07:00 +12°C° 1 mm 2 mps 736 mmHg 95%
08:00 +13°C° 0.3 mm 2 mps 736 mmHg 92%
09:00 +13°C° 0.3 mm 3 mps 737 mmHg 89%
10:00 +14°C° 0.3 mm 3 mps 737 mmHg 86%
11:00 +14°C° 0.1 mm 3 mps 737 mmHg 80%
12:00 +16°C° 0.1 mm 3 mps 738 mmHg 75%
13:00 +17°C° 0.1 mm 3 mps 738 mmHg 70%
14:00 +17°C° 0.2 mm 2 mps 738 mmHg 73%
15:00 +16°C° 0.2 mm 2 mps 738 mmHg 77%
16:00 +15°C° 0.2 mm 1 mps 738 mmHg 80%
17:00 +14°C° 0 mm 1 mps 739 mmHg 82%
18:00 +14°C° 0 mm 1 mps 739 mmHg 83%
19:00 +13°C° 0 mm 1 mps 739 mmHg 85%
20:00 +12°C° 0 mm 1 mps 740 mmHg 86%
21:00 +12°C° 0 mm 1 mps 740 mmHg 87%
22:00 +12°C° 0 mm 1 mps 740 mmHg 88%
23:00 +11°C° 0 mm 1 mps 740 mmHg 88%

, 25 October, Sunday

Time Temperature Precipitation Wind Pressure Humidity
00:00 +11°C° 0 mm 1 mps 740 mmHg 88%
01:00 +11°C° 0 mm 1 mps 739 mmHg 89%
02:00 +10°C° 0 mm 1 mps 739 mmHg 89%
03:00 +10°C° 0 mm 1 mps 739 mmHg 89%
04:00 +10°C° 0 mm 1 mps 739 mmHg 88%
05:00 +10°C° 0 mm 1 mps 739 mmHg 89%
06:00 +10°C° 0 mm 1 mps 739 mmHg 89%
07:00 +9°C° 0 mm 1 mps 739 mmHg 90%
08:00 +10°C° 0 mm 2 mps 739 mmHg 84%
09:00 +13°C° 0 mm 2 mps 739 mmHg 78%
10:00 +15°C° 0 mm 2 mps 739 mmHg 73%
11:00 +15°C° 0 mm 2 mps 739 mmHg 69%
12:00 +16°C° 0 mm 3 mps 738 mmHg 66%
13:00 +17°C° 0 mm 3 mps 738 mmHg 62%
14:00 +16°C° 0 mm 2 mps 738 mmHg 67%
15:00 +15°C° 0 mm 2 mps 737 mmHg 72%
16:00 +14°C° 0 mm 2 mps 737 mmHg 77%
17:00 +13°C° 0 mm 2 mps 737 mmHg 81%
18:00 +13°C° 0 mm 2 mps 737 mmHg 84%
19:00 +12°C° 0 mm 2 mps 737 mmHg 88%
20:00 +12°C° 0 mm 2 mps 737 mmHg 88%
21:00 +10°C° 0 mm 2 mps 737 mmHg 88%
22:00 +11°C° 0 mm 1 mps 736 mmHg 88%
23:00 +11°C° 0 mm 1 mps 736 mmHg 88%

25 October, Sunday

Time Temperature Precipitation Wind Pressure Humidity
00:00 +11°C° 0 mm 1 mps 740 mmHg 88%
01:00 +11°C° 0 mm 1 mps 739 mmHg 89%
02:00 +10°C° 0 mm 1 mps 739 mmHg 89%
03:00 +10°C° 0 mm 1 mps 739 mmHg 89%
04:00 +10°C° 0 mm 1 mps 739 mmHg 88%
05:00 +10°C° 0 mm 1 mps 739 mmHg 89%
06:00 +10°C° 0 mm 1 mps 739 mmHg 89%
07:00 +9°C° 0 mm 1 mps 739 mmHg 90%
08:00 +10°C° 0 mm 2 mps 739 mmHg 84%
09:00 +13°C° 0 mm 2 mps 739 mmHg 78%
10:00 +15°C° 0 mm 2 mps 739 mmHg 73%
11:00 +15°C° 0 mm 2 mps 739 mmHg 69%
12:00 +16°C° 0 mm 3 mps 738 mmHg 66%
13:00 +17°C° 0 mm 3 mps 738 mmHg 62%
14:00 +16°C° 0 mm 2 mps 738 mmHg 67%
15:00 +15°C° 0 mm 2 mps 737 mmHg 72%
16:00 +14°C° 0 mm 2 mps 737 mmHg 77%
17:00 +13°C° 0 mm 2 mps 737 mmHg 81%
18:00 +13°C° 0 mm 2 mps 737 mmHg 84%
19:00 +12°C° 0 mm 2 mps 737 mmHg 88%
20:00 +12°C° 0 mm 2 mps 737 mmHg 88%
21:00 +10°C° 0 mm 2 mps 737 mmHg 88%
22:00 +11°C° 0 mm 1 mps 736 mmHg 88%
23:00 +11°C° 0 mm 1 mps 736 mmHg 88%

26 October, Monday

Time Temperature Precipitation Wind Pressure Humidity
00:00 +10°C° 0 mm 1 mps 736 mmHg 88%
01:00 +10°C° 0 mm 1 mps 735 mmHg 88%
02:00 +10°C° 0 mm 1 mps 735 mmHg 88%
03:00 +10°C° 0 mm 1 mps 734 mmHg 88%
04:00 +10°C° 0 mm 1 mps 734 mmHg 88%
05:00 +10°C° 0 mm 1 mps 734 mmHg 88%
06:00 +10°C° 0 mm 1 mps 733 mmHg 88%
07:00 +10°C° 0 mm 1 mps 733 mmHg 87%
08:00 +10°C° 0 mm 2 mps 733 mmHg 82%
09:00 +12°C° 0 mm 3 mps 732 mmHg 77%
10:00 +14°C° 0 mm 4 mps 732 mmHg 72%
11:00 +14°C° 0 mm 4 mps 732 mmHg 72%
12:00 +14°C° 0 mm 4 mps 732 mmHg 72%
13:00 +15°C° 0 mm 4 mps 731 mmHg 72%
14:00 +14°C° 0 mm 4 mps 731 mmHg 74%
15:00 +14°C° 0 mm 4 mps 731 mmHg 76%
16:00 +13°C° 0 mm 3 mps 730 mmHg 79%
17:00 +13°C° 0 mm 3 mps 730 mmHg 81%
18:00 +12°C° 0 mm 3 mps 730 mmHg 83%
19:00 +12°C° 0 mm 3 mps 730 mmHg 84%
20:00 +12°C° 0.2 mm 3 mps 730 mmHg 85%
21:00 +12°C° 0.2 mm 4 mps 730 mmHg 85%
22:00 +12°C° 0.2 mm 4 mps 731 mmHg 85%
23:00 +12°C° 0.1 mm 4 mps 731 mmHg 86%

27 October, Tuesday

Time Temperature Precipitation Wind Pressure Humidity
00:00 +12°C° 0.1 mm 3 mps 731 mmHg 87%
01:00 +12°C° 0.1 mm 3 mps 731 mmHg 88%
02:00 +11°C° 0 mm 3 mps 731 mmHg 89%
03:00 +11°C° 0 mm 3 mps 731 mmHg 90%
04:00 +10°C° 0 mm 2 mps 731 mmHg 91%
05:00 +10°C° 0 mm 2 mps 732 mmHg 91%
06:00 +10°C° 0 mm 2 mps 732 mmHg 91%
07:00 +10°C° 0 mm 2 mps 732 mmHg 92%
08:00 +12°C° 0 mm 2 mps 733 mmHg 86%
09:00 +13°C° 0 mm 3 mps 733 mmHg 81%
10:00 +14°C° 0 mm 3 mps 733 mmHg 76%
11:00 +16°C° 0 mm 3 mps 733 mmHg 72%
12:00 +17°C° 0 mm 3 mps 734 mmHg 68%
13:00 +18°C° 0 mm 3 mps 734 mmHg 64%
14:00 +17°C° 0 mm 3 mps 734 mmHg 68%
15:00 +17°C° 0 mm 2 mps 733 mmHg 72%
16:00 +16°C° 0 mm 1 mps 733 mmHg 76%
17:00 +15°C° 0 mm 1 mps 734 mmHg 79%
18:00 +14°C° 0 mm 1 mps 734 mmHg 82%
19:00 +13°C° 0 mm 1 mps 734 mmHg 84%
20:00 +13°C° 0 mm 1 mps 734 mmHg 85%
21:00 +13°C° 0 mm 1 mps 735 mmHg 85%
22:00 +12°C° 0 mm 1 mps 735 mmHg 86%
23:00 +12°C° 0 mm 1 mps 735 mmHg 86%
Show more